This demonstration page uses our WeatherBlox Daily Observations layout. Learn more.

Left ArrowRight Arrow

44.8408, -93.29828

Hourly Observations for August 11, 2022

Temp ( °F °C ) Dew Point ( °F °C ) Humidity (%) Winds ( mph kmh ) Pressure ( in mb ) Visibility ( mi km ) Precip ( " mm )
12:53 am 00:53 Clear 70 21.1 55 12.8 59 59 NNE 6 9 30.19 1023 10 16 0.00 0.00
1:53 am 01:53 Clear 68 20 55 12.8 63 63 NE 3 6 30.20 1023 10 16 0.00 0.00
2:53 am 02:53 Mostly Clear 67 19.4 56 13.3 68 68 NNE 7 11 30.20 1023 10 16 0.00 0.00
3:53 am 03:53 Mostly Clear 67 19.4 56 13.3 68 68 NNE 5 7 30.20 1023 10 16 0.00 0.00
4:53 am 04:53 Mostly Clear 67 19.4 55 12.8 66 66 NE 5 7 30.20 1023 10 16 0.00 0.00
5:53 am 05:53 Mostly Cloudy 67 19.4 54 12.2 63 63 NE 6 9 30.20 1023 10 16 0.00 0.00
6:53 am 06:53 Mostly Cloudy 67 19.4 54 12.2 63 63 N 6 9 30.23 1024 10 16 0.00 0.00
7:53 am 07:53 Mostly Cloudy 68 20 54 12.2 61 61 ENE 7 11 30.22 1023 10 16 0.00 0.00
8:53 am 08:53 Mostly Cloudy 69 20.6 55 12.8 61 61 ENE 6 9 30.24 1024 10 16 0.00 0.00
9:53 am 09:53 Mostly Cloudy 70 21.1 55 12.8 59 59 E 5 7 30.23 1024 10 16 0.00 0.00
10:53 am 10:53 Partly Cloudy 76 24.4 56 13.3 50 50 E 7 11 30.22 1023 10 16 0.00 0.00
11:53 am 11:53 Partly Cloudy 79 26.1 53 11.7 41 41 VRB 5 7 30.23 1024 10 16 0.00 0.00
12:53 pm 12:53 Partly Cloudy 79 26.1 52 11.1 39 39 VRB 3 6 30.22 1023 10 16 0.00 0.00
1:53 pm 13:53 Partly Cloudy 78 25.6 52 11.1 40 40 VRB 5 7 30.21 1023 10 16 0.00 0.00
2:53 pm 14:53 Partly Cloudy 81 27.2 53 11.7 38 38 SSE 6 9 30.19 1022 10 16 0.00 0.00
3:53 pm 15:53 Partly Cloudy 82 27.8 53 11.7 37 37 E 9 15 30.17 1022 10 16 0.00 0.00
4:53 pm 16:53 Mostly Sunny 81 27.2 53 11.7 38 38 VRB 3 6 30.16 1021 10 16 0.00 0.00
5:53 pm 17:53 Mostly Sunny 81 27.2 54 12.2 39 39 S 8 13 30.16 1021 10 16 0.00 0.00
6:53 pm 18:53 Mostly Cloudy 80 26.7 54 12.2 41 41 SSE 8 13 30.15 1021 10 16 0.00 0.00
7:53 pm 19:53 Mostly Cloudy 77 25 55 12.8 47 47 SSE 7 11 30.16 1021 10 16 0.00 0.00
8:53 pm 20:53 Mostly Cloudy 76 24.4 56 13.3 50 50 SE 7 11 30.16 1021 10 16 0.00 0.00
9:53 pm 21:53 Partly Cloudy 75 23.9 55 12.8 50 50 SE 7 11 30.17 1022 10 16 0.00 0.00
10:53 pm 22:53 Mostly Cloudy 73 22.8 56 13.3 55 55 SE 8 13 30.18 1022 10 16 0.00 0.00
11:53 pm 23:53 Mostly Cloudy 72 22.2 54 12.2 53 53 SE 12 19 30.15 1021 10 16 0.00 0.00

Powered by AerisWeather